STARLINK-3908, 52491

Orbit data source: Space-Track

STARLINK-3908, 52491 is a payload satellite owned by SpaceX/Seattle (US) in LEO that was launched on Fri, 06 May 2022 UTC via an FALCON 9 launch vehicle from the Air Force Eastern Test Range (AFETR). Payload-class satellites include a variety of spacecraft equipped with specific instruments for various scientific and technological missions. These include communications satellites like Starlink; space stations such as the ISS; scientific satellites like the Hubble; Earth observation satellites from companies like Planet Labs, Umbra, and HawkEye 360; GPS; miniature CubeSats for education and research; and military/defense satellites.

Loading next visibility...
Identifier
52491, 2022-049AS
Orbit
LEO
Country
Flag of USUS
Related business
Manufacturer
SpaceX/Seattle
Mission
Operational Commercial Communications
Bus & Motor
STARLINK, Unknown motor
Mass
297 kg wet, ~220 kg dry
Launch date (UTC)
2022-05-06 (4 years ago)
Launch vehicle
FALCON 9
Launch site
Air Force Eastern Test Range (AFETR)
Object type
Payload
Rocket body
Debris
Shape & HBR
Box + 1 Pan, 10.1 m
Radar Cross Section
13.562 m², Large (>1 m²)

Expand to show TLE details & history
Last TLE update: 12 hours ago

TLE from 12 hours ago
0 STARLINK-3908
1 52491U 22049AS  26219.92881185  .00000002  00000-0  18195-4 0  9990
2 52491  53.1604  89.7765 0001371  90.1739 269.9409 15.08830915235228
Epoch: 2026-08-07T22:17Z
TLE epoch observation values (Epoch: 2026-08-07T22:17:29.343Z)
Latitude
-0.00008°
Longitude
158.95671°
Altitude
540.664 km
Speed
7.593 km/s
True Right ascension
05h 59m 06s
True Declination
0° 00' 00"
Sunlit
Object was in daylight at epoch
Visualization orbit readout
Latitude
Unknown
Longitude
Unknown
Altitude
Unknown
Speed
Unknown
Apparent Right ascension
Unknown
Apparent Declination
Unknown
Sunlit
N/A
Visualization observer readout
Local Sidereal Time
00:40:38
Azimuth
Unknown
Elevation
Unknown
Doppler factor
Unknown
Orbital elements
Apogee altitude
540.974 km
Perigee altitude
539.077 km
Semi-major axis
6,918.162 km
Eccentricity
0.00014
Inclination
53.1604°
RAAN
89.7765°
Arg. of periapsis
90.1739°
True anomaly
269.92519°
Mean anomaly
269.9409°
Eccentric anomaly
269.93304°
Mean motion
3.77187 °/min
Orbital period
95.44 mins
BSTAR
0.000018195
Loading maneuver chart data...
Computing Atmospheric mass density...
Loading historical data...
Loading historical data...
Loading historical data...
Loading historical data...
Loading historical data...
Loading historical data...
Loading historical data...

Documentation

Showing up to 5 results
|